Location: Newark
(46.7636°N, 1.8358°W)
Time: 16:35:41
(UTC+00:00)

Vanguard 2 Rocket - Pass Details

Date: 19 October 2019
Orbit: 554 x 3326 km, 32.9° (Epoch: 13 November)

Event Time Altitude Azimuth Distance (km) Brightness Sun altitude
Rises 15:47:35 0° 277° (W) 7,161 12.4 12.9°
Reaches altitude 10° 15:54:15 10° 265° (W) 5,844 12.5 11.9°
Maximum altitude 16:05:31 22° 224° (SW) 4,117 11.8 10.1°
Drops below altitude 10° 16:13:54 10° 179° (S) 4,204 10.7 8.9°
Sets 16:17:42 0° 164° (SSE) 4,765 10.7 8.3°
